• In India
  • List of Countries
  • For 7 days
  • Water Temperature
  • Satellite Maps
  • Weather Map
  • Weather Widgets
  • user-avatar
    Login

    Hourly Weather Zrodla

    Today, 16 July, Monday

    Time Temperature Precipitation Wind Pressure Humidity
    00:00 +18°C° 0 mm 1 mps 749 mmHg 73%
    01:00 +17°C° 0 mm 2 mps 749 mmHg 72%
    02:00 +16°C° 0 mm 2 mps 748 mmHg 75%
    03:00 +16°C° 0 mm 2 mps 748 mmHg 78%
    04:00 +16°C° 0 mm 1 mps 748 mmHg 80%
    05:00 +17°C° 0 mm 2 mps 748 mmHg 77%
    06:00 +19°C° 0 mm 2 mps 748 mmHg 74%
    07:00 +20°C° 0 mm 2 mps 748 mmHg 71%
    08:00 +23°C° 0.1 mm 2 mps 748 mmHg 66%
    09:00 +24°C° 0.1 mm 2 mps 748 mmHg 61%
    10:00 +26°C° 0.1 mm 3 mps 748 mmHg 57%
    11:00 +27°C° 0.1 mm 3 mps 747 mmHg 53%
    12:00 +27°C° 0.1 mm 3 mps 747 mmHg 50%
    13:00 +28°C° 0.1 mm 3 mps 747 mmHg 47%
    14:00 +28°C° 0.2 mm 3 mps 746 mmHg 48%
    15:00 +28°C° 0.2 mm 3 mps 746 mmHg 48%
    16:00 +28°C° 0.2 mm 3 mps 746 mmHg 49%
    17:00 +27°C° 0.1 mm 2 mps 746 mmHg 55%
    18:00 +26°C° 0.1 mm 2 mps 745 mmHg 61%
    19:00 +24°C° 0.1 mm 1 mps 745 mmHg 67%
    20:00 +23°C° 0.5 mm 1 mps 745 mmHg 71%
    21:00 +21°C° 0.5 mm 2 mps 745 mmHg 76%
    22:00 +19°C° 0.5 mm 2 mps 745 mmHg 80%
    23:00 +19°C° 0.4 mm 2 mps 745 mmHg 83%

    Tomorrow, 17 July, Tuesday

    Time Temperature Precipitation Wind Pressure Humidity
    00:00 +18°C° 0.4 mm 2 mps 745 mmHg 86%
    01:00 +18°C° 0.4 mm 2 mps 745 mmHg 90%
    02:00 +17°C° 0 mm 2 mps 745 mmHg 91%
    03:00 +17°C° 0 mm 2 mps 745 mmHg 92%
    04:00 +17°C° 0 mm 3 mps 745 mmHg 93%
    05:00 +18°C° 0.1 mm 3 mps 745 mmHg 91%
    06:00 +19°C° 0.1 mm 4 mps 745 mmHg 89%
    07:00 +20°C° 0.1 mm 5 mps 744 mmHg 86%
    08:00 +20°C° 0.7 mm 5 mps 745 mmHg 86%
    09:00 +20°C° 0.7 mm 6 mps 745 mmHg 85%
    10:00 +20°C° 0.7 mm 6 mps 745 mmHg 84%
    11:00 +20°C° 0.7 mm 6 mps 745 mmHg 85%
    12:00 +19°C° 0.7 mm 6 mps 744 mmHg 86%
    13:00 +18°C° 0.7 mm 7 mps 744 mmHg 86%
    14:00 +18°C° 0.1 mm 7 mps 744 mmHg 85%
    15:00 +18°C° 0.1 mm 7 mps 744 mmHg 85%
    16:00 +18°C° 0.1 mm 7 mps 744 mmHg 84%
    17:00 +19°C° 0.1 mm 6 mps 744 mmHg 85%
    18:00 +19°C° 0.1 mm 6 mps 745 mmHg 85%
    19:00 +19°C° 0.1 mm 5 mps 745 mmHg 86%
    20:00 +17°C° 0 mm 5 mps 745 mmHg 87%
    21:00 +17°C° 0 mm 5 mps 745 mmHg 89%
    22:00 +17°C° 0 mm 5 mps 745 mmHg 91%
    23:00 +17°C° 0.1 mm 5 mps 745 mmHg 91%

    Day after tomorrow, 18 July, Wednesday

    Time Temperature Precipitation Wind Pressure Humidity
    00:00 +16°C° 0.1 mm 5 mps 745 mmHg 91%
    01:00 +16°C° 0.1 mm 5 mps 744 mmHg 92%
    02:00 +17°C° 0.1 mm 5 mps 744 mmHg 92%
    03:00 +17°C° 0.1 mm 6 mps 745 mmHg 92%
    04:00 +17°C° 0.1 mm 6 mps 745 mmHg 92%
    05:00 +17°C° 0.3 mm 6 mps 745 mmHg 91%
    06:00 +17°C° 0.3 mm 6 mps 745 mmHg 90%
    07:00 +17°C° 0.3 mm 6 mps 745 mmHg 89%
    08:00 +19°C° 0.8 mm 6 mps 745 mmHg 86%
    09:00 +20°C° 0.8 mm 6 mps 745 mmHg 83%
    10:00 +20°C° 0.8 mm 6 mps 745 mmHg 80%
    11:00 +21°C° 1.1 mm 6 mps 745 mmHg 79%
    12:00 +21°C° 1.1 mm 6 mps 745 mmHg 79%
    13:00 +21°C° 1.1 mm 5 mps 745 mmHg 78%
    14:00 +22°C° 0.8 mm 5 mps 745 mmHg 78%
    15:00 +22°C° 0.8 mm 4 mps 746 mmHg 79%
    16:00 +22°C° 0.8 mm 4 mps 746 mmHg 79%
    17:00 +21°C° 0.4 mm 4 mps 746 mmHg 81%
    18:00 +21°C° 0.4 mm 4 mps 746 mmHg 83%
    19:00 +20°C° 0.4 mm 4 mps 746 mmHg 85%
    20:00 +20°C° 0.1 mm 4 mps 746 mmHg 87%
    21:00 +19°C° 0.1 mm 4 mps 747 mmHg 88%
    22:00 +19°C° 0.1 mm 4 mps 747 mmHg 90%
    23:00 +18°C° 0.2 mm 4 mps 747 mmHg 90%

    19 July, Thursday

    Time Temperature Precipitation Wind Pressure Humidity
    00:00 +18°C° 0.2 mm 4 mps 747 mmHg 91%
    01:00 +18°C° 0.2 mm 4 mps 747 mmHg 91%
    02:00 +17°C° 0.4 mm 5 mps 747 mmHg 92%
    03:00 +17°C° 0.4 mm 5 mps 747 mmHg 92%
    04:00 +17°C° 0.4 mm 5 mps 747 mmHg 92%
    05:00 +17°C° 0.5 mm 5 mps 747 mmHg 91%
    06:00 +17°C° 0.5 mm 5 mps 747 mmHg 90%
    07:00 +17°C° 0.5 mm 6 mps 747 mmHg 89%
    08:00 +19°C° 0.7 mm 5 mps 747 mmHg 87%
    09:00 +19°C° 0.7 mm 5 mps 748 mmHg 86%
    10:00 +19°C° 0.7 mm 5 mps 748 mmHg 84%
    11:00 +20°C° 0.7 mm 5 mps 748 mmHg 81%
    12:00 +21°C° 0.7 mm 5 mps 748 mmHg 78%
    13:00 +22°C° 0.7 mm 4 mps 748 mmHg 76%
    14:00 +22°C° 0.2 mm 4 mps 748 mmHg 74%
    15:00 +23°C° 0.2 mm 4 mps 748 mmHg 72%
    16:00 +23°C° 0.2 mm 4 mps 748 mmHg 70%
    17:00 +24°C° 0 mm 3 mps 748 mmHg 74%
    18:00 +22°C° 0 mm 3 mps 748 mmHg 77%
    19:00 +21°C° 0 mm 2 mps 748 mmHg 80%
    20:00 +20°C° 0 mm 2 mps 748 mmHg 83%
    21:00 +19°C° 0 mm 2 mps 748 mmHg 85%
    22:00 +18°C° 0 mm 2 mps 748 mmHg 87%
    23:00 +17°C° 0 mm 2 mps 748 mmHg 87%

    20 July, Friday

    Time Temperature Precipitation Wind Pressure Humidity
    00:00 +17°C° 0 mm 2 mps 748 mmHg 87%
    01:00 +16°C° 0 mm 2 mps 748 mmHg 87%
    02:00 +16°C° 0 mm 2 mps 748 mmHg 87%
    03:00 +15°C° 0 mm 2 mps 748 mmHg 86%
    04:00 +14°C° 0 mm 3 mps 748 mmHg 86%
    05:00 +16°C° 0 mm 3 mps 748 mmHg 82%
    06:00 +17°C° 0 mm 3 mps 748 mmHg 77%
    07:00 +18°C° 0 mm 3 mps 748 mmHg 72%
    08:00 +20°C° 0 mm 3 mps 748 mmHg 65%
    09:00 +21°C° 0 mm 3 mps 748 mmHg 58%
    10:00 +24°C° 0 mm 3 mps 748 mmHg 51%
    11:00 +25°C° 0 mm 3 mps 748 mmHg 48%
    12:00 +26°C° 0 mm 3 mps 748 mmHg 45%
    13:00 +27°C° 0 mm 3 mps 747 mmHg 41%
    14:00 +27°C° 0 mm 3 mps 747 mmHg 41%
    15:00 +27°C° 0 mm 2 mps 747 mmHg 41%
    16:00 +27°C° 0 mm 2 mps 747 mmHg 40%
    17:00 +26°C° 0 mm 2 mps 746 mmHg 46%
    18:00 +25°C° 0 mm 1 mps 746 mmHg 52%
    19:00 +23°C° 0 mm 1 mps 746 mmHg 58%
    20:00 +22°C° 0 mm 1 mps 746 mmHg 62%
    21:00 +20°C° 0 mm 1 mps 747 mmHg 65%
    22:00 +19°C° 0 mm 1 mps 747 mmHg 69%
    23:00 +18°C° 0 mm 1 mps 747 mmHg 71%

    21 July, Saturday

    Time Temperature Precipitation Wind Pressure Humidity
    00:00 +18°C° 0 mm 1 mps 747 mmHg 73%
    01:00 +16°C° 0 mm 1 mps 746 mmHg 76%
    02:00 +16°C° 0 mm 1 mps 746 mmHg 77%
    03:00 +16°C° 0 mm 1 mps 746 mmHg 77%
    04:00 +16°C° 0 mm 1 mps 746 mmHg 78%
    05:00 +18°C° 0 mm 1 mps 746 mmHg 74%
    06:00 +20°C° 0 mm 1 mps 746 mmHg 69%
    07:00 +21°C° 0 mm 1 mps 746 mmHg 64%
    08:00 +23°C° 0 mm 1 mps 746 mmHg 61%
    09:00 +24°C° 0 mm 1 mps 746 mmHg 57%
    10:00 +26°C° 0 mm 1 mps 746 mmHg 53%
    11:00 +26°C° 0 mm 1 mps 746 mmHg 51%
    12:00 +27°C° 0 mm 1 mps 746 mmHg 48%
    13:00 +27°C° 0 mm 1 mps 745 mmHg 46%
    14:00 +27°C° 0 mm 1 mps 745 mmHg 47%
    15:00 +27°C° 0 mm 1 mps 745 mmHg 48%
    16:00 +27°C° 0 mm 1 mps 745 mmHg 48%
    17:00 +26°C° 0 mm 1 mps 745 mmHg 54%
    18:00 +25°C° 0 mm 2 mps 745 mmHg 59%
    19:00 +24°C° 0 mm 2 mps 745 mmHg 65%
    20:00 +22°C° 0 mm 1 mps 745 mmHg 68%
    21:00 +21°C° 0 mm 1 mps 745 mmHg 70%
    22:00 +20°C° 0 mm 1 mps 745 mmHg 73%
    23:00 +19°C° 0 mm 1 mps 745 mmHg 74%
    Show more